www.pogodaiklimat.ru

Погода и климат >> Архив погоды >> Боливия >> Rurrenabaque


ПОГОДА в Rurrenabaque

  • Прогноз погоды в Rurrenabaque
  • Монитор погоды в Rurrenabaque
  • Климат города

АРХИВ ПОГОДЫ в Rurrenabaque

Время (UTC), дата Ветер
(напр.,м/с)
 
Видим.   Явления Облачность Т
(С)
Тd
(С)
f
(%)
Тe
(С)
Тes
(С)
Комфортность P
(гПа)
Po
(гПа)
Тmin
(С)
Tmax
(С)
R
(мм)
R24
(мм)
S
(см)
12 14.01 СЗ 2 4000 м слабый дождь {ливн. осадки} 10/9 240 м
[Sc As op]
+23.2 +23.2 100 +33 +33 очень
душно
1007.8 984.5 +20.2 2
15 14.01 СЗ 2 2000 м слабый дождь 10/9 120 м
[Frnb As op]
+24.1 +24.1 100 +33 +34 очень
душно
1009.3 986.2
18 14.01 СЗ 2 20 км в посл. час дождь 10/9 120 м
[Frnb As op]
+24.1 +23.8 98 +33 +33 очень
душно
1010.0 986.0 6
21 14.01 С 3 8000 м осадки на расстоянии {дождь} 9/8 360 м
[Sc Ac cast]
+26.5 +24.5 89 +37 +38 очень
душно
1008.1 984.2 +27.1
12 15.01 ЮВ 4 2000 м слабая морось 10/10 120 м
[Frnb]
+21.6 +21.6 100 +28 +28 очень
душно
1011.5 988.2 +20.4 8
15 15.01 ЮВ 4 20 км 10/8 300 м
[Sc As op]
+23.8 +21.9 89 +31 +31 очень
душно
1013.1 989.8
18 15.01 ЮВ 5 20 км 10/10 360 м
[Sc]
+25.7 +23.4 87 +35 +35 очень
душно
1011.6 988.0
21 15.01 ЮВ 3 20 км 10/10 360 м
[Sc]
+26.2 +24.2 89 +36 +36 очень
душно
1009.3 986.0 +27.2
12 16.01 штиль 0 20 км {ливн. осадки} 9/8 300 м
[Sc Ac trans]
+23.7 +23.2 97 +32 +32 очень
душно
1012.8 989.0 +22.3 1
15 16.01 штиль 0 20 км 9/8 360 м
[Sc Ac trans]
+27.0 +24.3 85 +38 +41 очень
душно
1013.9 990.1
18 16.01 штиль 0 8000 м осадки на расстоянии {дождь} 9/6 450 м
[Sc Ci sp]
+28.0 +24.5 81 +39 +48 очень
душно
1011.7 988.8 8
12 17.01 штиль 0 20 км 8/4 240 м
[Sc Ac trans]
+23.2 +22.9 98 +32 +34 очень
душно
1011.2 988.3 +20.4 8
15 17.01 штиль 0 20 км 8/6 450 м
[Sc Ci fib]
+29.2 +24.5 76 +41 +51 опасность
перегрева
1012.2 1012.0
18 17.01 штиль 0 20 км 8/6 480 м
[Cb calv Ci]
+29.7 +24.2 72 +41 +51 опасность
перегрева
1010.4 987.5
21 17.01 штиль 0 20 км 6/4 500 м
[Cu hum Ci fib]
+31.0 +25.1 71 +45 +48 опасность
перегрева
1007.7 984.0 +31.3
12 18.01 штиль 0 4000 м слабый дождь 10/9 180 м
[Frnb As op]
+24.1 +24.0 99 +33 +33 очень
душно
1012.4 988.7 +21.4 24
15 18.01 штиль 0 20 км 9/8 300 м
[Sc Ci]
+26.9 +24.9 89 +39 +43 очень
душно
1012.5 989.6
18 18.01 штиль 0 20 км 8/6 450 м
[Cb calv Ci fib]
+29.8 +25.6 78 +44 +53 опасность
перегрева
1010.6 987.7 3
21 18.01 штиль 0 20 км 9/5 500 м
[Cb calv Ci]
+29.7 +26.0 81 +45 +47 опасность
перегрева
1007.2 984.3 +32.0
12 19.01 штиль 0 6000 м 10/10 180 м
[St]
+25.0 +24.7 98 +35 +35 очень
душно
1012.0 989.2 +22.4 3
15 19.01 штиль 0 20 км в посл. час дождь 9/4 450 м
[Cb calv Ac trans]
+26.5 +25.2 93 +38 +46 очень
душно
1013.3 990.4
18 19.01 штиль 0 20 км {ливн. осадки} 6/6 500 м
[Cb calv Ci ing]
+32.0 +24.7 65 +45 +55 опасность
перегрева
1010.6 987.0 3
21 19.01 штиль 0 20 км 8/3 500 м
[Cu hum Ci sp]
+30.2 +26.0 78 +45 +49 опасность
перегрева
1007.9 984.2 +32.4
12 20.01 штиль 0 3000 м слабый дождь 10/10 150 м
[Frnb]
+23.8 +23.8 100 +32 +32 очень
душно
1012.0 989.2 +21.7 45
15 20.01 штиль 0 20 км 9/5 450 м
[Sc Ac trans Ci]
+27.5 +24.6 84 +39 +47 очень
душно
1012.3 989.3
18 20.01 С 2 20 км {дождь} 6/5 450 м
[Cb calv Ci ing]
+30.9 +25.5 73 +45 +54 опасность
перегрева
1011.0 987.8 1
21 20.01 штиль 0 20 км 6/3 500 м
[Cu hum Ci sp]
+30.5 +25.5 75 +45 +48 опасность
перегрева
1007.2 983.8 +31.4

 

Местоположение метеостанции Rurrenabaque (Боливия): широта -14.46 долгота -67.56 высота над уровнем моря 204 м.

В архиве по умолчанию представлена погода в Rurrenabaque за последнюю неделю. Архивные данные за месяц целиком и за предыдущие месяцы, начиная с января 2011 года, Вы можете получить, выбрав интересующий диапазон дат из раскрывающегося списка и нажав кнопку "Ввод!".

Внимание! Время в таблицах - всемирное. Для получения местного времени необходимо прибавить поправку, которая в Rurrenabaque равна -4 ч.

Смотрите также архив погоды в соседних городах и на ближайших метеорологических станциях:

Погода в Reyes (Боливия) (26 км)
Погода в Santa Rosa (Боливия) (78 км)
Погода в San Borja (Боливия) (87 км)
Погода в San Ignacio De Moxo (Боливия) (217 км)
Погода в Ovejuyo (Боливия) (235 км)
Погода в La Paz (Боливия) (238 км)
Погода в Santa Ana (Боливия) (243 км)
Погода в Baures (Боливия) (243 км)
Погода в Puerto Maldonado (Перу) (273 км)
Погода в Trinidad (Боливия) (288 км)

Пояснения к столбцам:

Ветер - указаны скорость ветра в м/с - средняя за 10 мин, порывы в срок и между сроками (в фигурных скобках) и направление, откуда дует ветер: С - северный, СВ - северо-восточный, В - восточный, ЮВ - юго-восточный, Ю - южный, ЮЗ - юго-западный, З - западный, СЗ - северо-западный.
Видимость - горизонтальная дальность видимости в метрах или километрах. При видимости от 1 до 10 км при отсутствии осадков обычно наблюдается дымка, при ухудшении видимости до 1 км и менее - туман. В сухую погоду видимость может ухудшаться дымом, пылью или мглою.
Явления - указаны атмосферные явления, наблюдавшиеся в срок или в последний час перед сроком; фигурными скобками обозначены явления, наблюдавшиеся между сроками (за 1-3 часа до срока); квадратными скобками обозначены град или гололедные отложения с указанием их диаметра в мм.
Облачность - указаны через наклонную черту общая и нижняя облачность в баллах и высота нижней границы облаков в метрах; квадратными скобками обозначены формы облаков: Ci - перистые, Cs - перисто-слоистые, Cc - перисто-кучевые, Ac - высококучевые, As - высокослоистые, Sc - слоисто-кучевые, Ns - слоисто-дождевые, Cu - кучевые, Cb - кучево-дождевые. Подробнее классификацию облаков см. в Атласе облаков (PDF).
T - Температура воздуха - температура, измеренная на высоте 2 м над землей.
Td - Температура точки росы - температура, при понижении до которой содержащийся в воздухе водяной пар достигнет насыщения.
f - Относительная влажность воздуха - влажноcть воздуха, измеренная на высоте 2 м над землей.
Te - Эффективная температура - температура, которую ощущает одетый по сезону человек в тени. Характеристика душности погоды. При расчете учитывается влияние влажности воздуха и скорости ветра на теплоощущения человека.
Tes - Эффективная температура на солнце - температура, которую ощущает человек, с поправкой на солнечный нагрев. Характеристика знойности погоды. Зависит от высоты солнца над горизонтом, облачности и скорости ветра. Ночью, в пасмурную погоду, а также при ветре 12 м/с и более поправка равна нулю.
P - Атмосферное давление - приведенное к уровню моря атмосферное давление.
Po - Атмосферное давление - измеренное на уровне метеостанции атмосферное давление.
Tmin - Минимальная температура - минимум температуры воздуха на высоте 2 м над землей.
Tmax - Максимальная температура - максимум температуры воздуха на высоте 2 м над землей.
R - Количество осадков - Количество выпавших осадков за период времени, мм. При наведении курсора мыши на число - период времени, за который выпало указанное количество осадков.
R24 - Количество осадков - Количество выпавших осадков за 24 часа, мм.
S - Снежный покров - Высота снежного покрова, см. При наведении курсора мыши на число - состояние снежного покрова и степень покрытия местности в баллах.